Tracking 19149 objects as of 21-Apr-2018
HD Live streaming from Space Station
objects crossing your sky now

FENGYUN 1C DEB

Track FENGYUN 1C DEB now!
10-day predictions


NORAD ID: 36141
Int'l Code: 1999-025DRN
Perigee: 791.3 km
Apogee: 1,004.1 km
Inclination: 98.5 °
Period: 102.8 minutes
Semi major axis: 7268 km
RCS: 0.0157 m2 (small)
Launch date: May 10, 1999
Source: People's Republic of China (PRC)
Launch site: Taiyaun Space Center, China (TSC)

Note: This is SATELLITE DEBRIS
aabbcc
Your satellite tracking list
Your tracking list is empty




NASA's NSSDC Master Catalog

Two Line Element Set (TLE):
1 36141U 99025DRN 18109.36829950 +.00001921 +00000-0 +11946-2 0  9997
2 36141 098.4863 165.3809 0146378 227.3866 131.4881 14.00931053247599
Source of the keplerian elements: AFSPC